Location: Be?chatów
(51.3665°N, 19.3745°E)
Time: 07:22:40
(UTC+00:00)

Cosmos 2333 Rocket - Pass Details

Date: 19 May 2025
Orbit: 840 x 862 km, 70.8° (Epoch: 16 June)

Event Time Altitude Azimuth Distance (km) Brightness Sun altitude
Rises 22:04:37 0° 329° (NNW) 3,442 6.6 -18.3°
Reaches altitude 10° 22:07:06 10° 330° (NNW) 2,499 5.7 -18.3°
Maximum altitude 22:12:52 87° 60° (ENE) 861 2.2 -18.4°
Enters shadow 22:15:54 29° 148° (SSE) 1,507 3.0 -18.5°
